Weather History for Santa Barbara, CA

Change the Weather History Date:

Wednesday, September 12, 2012

  Actual Average Record
Temperature  
Mean Temperature 69 °F 65 °F  
Max Temperature 74 °F 75 °F 88 °F (1971)
Min Temperature 63 °F 56 °F 47 °F (1985)
Degree Days  
Heating Degree Days 0 1  
Month to date heating degree days 1 12  
Since 1 July heating degree days 67 63  
Cooling Degree Days 4 2  
Month to date cooling degree days 29 24  
Year to date cooling degree days 150 151  
Growing Degree Days 18 (Base 50)    
Moisture  
Dew Point 63 °F    
Average Humidity 84    
Maximum Humidity 100    
Minimum Humidity 68    
Precipitation  
Precipitation 0.00 in 0.01 in 0.00 in (2014)
Month to date precipitation 0.08 0.04  
Year to date precipitation 6.80 12.24  
Since 1 July precipitation 0.10 0.19  
Sea Level Pressure  
Sea Level Pressure 29.98 in    
Wind  
Wind Speed 6 mph (WSW)    
Max Wind Speed 17 mph    
Max Gust Speed 20 mph    
Visibility 5 miles    
Events Fog    
T = Trace of Precipitation, MM = Missing Value Source: NWS Daily Summary

Daily Weather History Graph

Daily Weather History Graph

Search for Another Location

Airport:

Trip Planner

Search our weather history database for the weather conditions in past years. The results will help you decide how hot, cold, wet, or windy it might be!

Date:

Astronomy

Sep. 12, 2012 Rise Set
Actual Time 6:40 AM PDT 7:09 PM PDT
Civil Twilight 6:15 AM PDT 7:34 PM PDT
Nautical Twilight 5:45 AM PDT 8:04 PM PDT
Astronomical Twilight 5:15 AM PDT 8:34 PM PDT
Moon 3:10 AM PDT (9/12) 4:54 PM PDT (9/12)
Length of Visible Light 13h 19m
Length of Day
12h 28m
Waning Crescent, 13% of the Moon is Illuminated
Sep 12
Waning Crescent
Sep 15
New
Sep 22
First Quarter
Sep 29
Full
Oct 8
Last Quarter

Hourly Weather History & Observations

Time (PDT) Temp. Dew Point Humidity Pressure Visibility Wind Dir Wind Speed Gust Speed Precip Events Conditions
12:33 AM 64.4 °F 62.6 °F 94% 29.97 in 2.5 mi Calm Calm - N/A   Overcast
12:53 AM 64.0 °F 63.0 °F 96% 29.97 in 2.5 mi Calm Calm - N/A   Overcast
1:02 AM 64.4 °F 62.6 °F 94% 29.97 in 3.0 mi Calm Calm - N/A   Overcast
1:20 AM 64.4 °F 62.6 °F 94% 29.97 in 4.0 mi Calm Calm - N/A   Overcast
1:30 AM 64.4 °F 62.6 °F 94% 29.97 in 5.0 mi Calm Calm - N/A   Overcast
1:53 AM 64.9 °F 63.0 °F 93% 29.97 in 5.0 mi Calm Calm - N/A   Overcast
2:19 AM 64.4 °F 62.6 °F 94% 29.97 in 2.5 mi Calm Calm - N/A   Overcast
2:30 AM 64.4 °F 64.4 °F 100% 29.97 in 3.0 mi Calm Calm - N/A   Overcast
2:53 AM 64.9 °F 64.0 °F 97% 29.97 in 2.5 mi Calm Calm - N/A   Overcast
3:03 AM 64.4 °F 62.6 °F 94% 29.97 in 3.0 mi West 3.5 mph - N/A   Overcast
3:11 AM 64.4 °F 62.6 °F 94% 29.97 in 4.0 mi West 3.5 mph - N/A   Overcast
3:43 AM 64.4 °F 62.6 °F 94% 29.96 in 7.0 mi West 3.5 mph - N/A   Overcast
3:53 AM 64.0 °F 63.0 °F 96% 29.97 in 6.0 mi West 3.5 mph - N/A   Overcast
4:11 AM 64.4 °F 62.6 °F 94% 29.97 in 4.0 mi West 5.8 mph - N/A   Overcast
4:41 AM 64.4 °F 62.6 °F 94% 29.97 in 8.0 mi West 3.5 mph - N/A   Overcast
4:49 AM 64.4 °F 62.6 °F 94% 29.97 in 6.0 mi Calm Calm - N/A   Overcast
4:53 AM 64.0 °F 63.0 °F 96% 29.97 in 5.0 mi WSW 3.5 mph - N/A   Overcast
5:33 AM 64.4 °F 62.6 °F 94% 29.98 in 2.5 mi West 4.6 mph - N/A   Overcast
5:44 AM 64.4 °F 62.6 °F 94% 29.98 in 2.5 mi West 4.6 mph - N/A   Overcast
5:53 AM 64.0 °F 63.0 °F 96% 29.98 in 2.5 mi West 3.5 mph - N/A   Overcast
6:53 AM 64.0 °F 63.0 °F 96% 30.00 in 2.5 mi West 3.5 mph - N/A   Overcast
7:53 AM 64.0 °F 63.0 °F 96% 30.02 in 2.0 mi West 4.6 mph - N/A   Overcast
8:40 AM 64.4 °F 64.4 °F 100% 30.03 in 2.0 mi West 4.6 mph - N/A   Overcast
8:53 AM 64.9 °F 64.0 °F 97% 30.03 in 3.0 mi Variable 4.6 mph - N/A   Overcast
9:53 AM 64.9 °F 64.0 °F 97% 30.04 in 10.0 mi WSW 4.6 mph - N/A   Overcast
10:25 AM 66.2 °F 64.4 °F 94% 30.04 in 10.0 mi West 5.8 mph - N/A   Overcast
10:53 AM 68.0 °F 64.0 °F 87% 30.04 in 10.0 mi West 3.5 mph - N/A   Overcast
11:00 AM 68.0 °F 64.4 °F 88% 30.04 in 10.0 mi West 4.6 mph - N/A   Overcast
11:53 AM 70.0 °F 64.0 °F 81% 30.03 in 10.0 mi SW 5.8 mph - N/A   Overcast
12:33 PM 71.6 °F 64.4 °F 78% 30.01 in 10.0 mi West 10.4 mph - N/A   Scattered Clouds
12:53 PM 73.0 °F 64.0 °F 73% 30.01 in 10.0 mi West 11.5 mph - N/A   Partly Cloudy
1:53 PM 73.0 °F 63.0 °F 71% 29.99 in 10.0 mi West 10.4 mph - N/A   Clear
2:53 PM 73.0 °F 63.0 °F 71% 29.97 in 10.0 mi West 13.8 mph 19.6 mph N/A   Clear
3:53 PM 71.1 °F 62.1 °F 73% 29.96 in 10.0 mi West 16.1 mph - N/A   Clear
4:53 PM 71.1 °F 63.0 °F 75% 29.95 in 10.0 mi West 15.0 mph - N/A   Clear
5:25 PM 69.8 °F 62.6 °F 78% 29.95 in 10.0 mi West 10.4 mph - N/A   Scattered Clouds
5:34 PM 69.8 °F 62.6 °F 78% 29.95 in 10.0 mi West 13.8 mph - N/A   Mostly Cloudy
5:53 PM 68.0 °F 63.0 °F 84% 29.95 in 10.0 mi West 10.4 mph - N/A   Mostly Cloudy
6:53 PM 64.9 °F 62.1 °F 90% 29.96 in 7.0 mi West 9.2 mph - N/A   Mostly Cloudy
7:41 PM 62.6 °F 60.8 °F 94% 29.96 in 3.0 mi WSW 4.6 mph - N/A   Overcast
7:53 PM 63.0 °F 61.0 °F 93% 29.96 in 1.5 mi West 4.6 mph - N/A   Overcast
8:53 PM 63.0 °F 61.0 °F 93% 29.97 in 2.0 mi Variable 3.5 mph - N/A   Overcast
9:31 PM 62.6 °F 62.6 °F 100% 29.98 in 1.0 mi ESE 5.8 mph - N/A   Overcast
9:53 PM 63.0 °F 62.1 °F 97% 29.99 in 0.5 mi ESE 5.8 mph - N/A Fog Fog
10:53 PM 63.0 °F 62.1 °F 97% 30.00 in 0.5 mi East 5.8 mph - N/A Fog Fog
11:00 PM 62.6 °F 62.6 °F 100% 30.00 in 3.0 mi ESE 6.9 mph - N/A   Overcast
11:53 PM 63.0 °F 62.1 °F 97% 30.00 in 3.0 mi East 5.8 mph - N/A   Overcast